DW7784 Le Mans FR current weather conditions

sailwx.info

Wind from 333 at 0 knots gusting 2

Air temperature 11.7° C
Dewpoint 8.5° C

Last reported at 2019-Sep-18 02:01 UTC.
Time now 2019-Sep-18 02:53 UTC

Location: N 48°11' W 000°06'.
View on Google Maps.

See reports from other nearby stations

  
Tides and Currents Weather Stations Pressure Air Temp Water Temp Dewpoint Dewpoint Depression Visibility Wind Speed Wind Dir Waves Ship Positions
date/time (UTC)wind fromknots sea level pressurealtimeterstation pressurevisibilityair tempwater tempwave heightnotes
2019-Sep-18 02:31 247 0 gusting 2
2019-Sep-18 02:21 315 11.1
2019-Sep-18 02:11 333 0 gusting 1
2019-Sep-18 02:01 333 0 gusting 2 11.7
2019-Sep-18 01:51 353 0 gusting 2 11.7
2019-Sep-18 01:41 337 0 gusting 0 11.7
2019-Sep-18 01:31 337 11.7
2019-Sep-18 01:21 334 0 gusting 1 11.7
2019-Sep-18 01:11 337 0 gusting 1 11.7
2019-Sep-18 01:01 019 0 gusting 3 11.7
2019-Sep-18 00:51 317 1 gusting 2 12.2
2019-Sep-18 00:41 348 0 gusting 4 12.2
2019-Sep-18 00:31 019 0 gusting 2
2019-Sep-18 00:21 330 1 gusting 2 12.2
2019-Sep-18 00:11 291 1 gusting 1 12.8
2019-Sep-18 00:01 045 0 gusting 1 12.8
2019-Sep-17 23:51 332 1 gusting 4 12.8
2019-Sep-17 23:41 343 2 gusting 5
2019-Sep-17 23:31 003 1 gusting 1 13.3
2019-Sep-17 23:21 337 1 gusting 2 13.3
2019-Sep-17 23:11 001 2 gusting 3
2019-Sep-17 23:01 050 0 gusting 1 13.3
2019-Sep-17 22:51 313 0 gusting 1 13.3
2019-Sep-17 22:41 343 1 gusting 2 13.9
2019-Sep-17 22:31 324 1 gusting 2 13.9
2019-Sep-17 22:21 332 1 gusting 2 13.9
2019-Sep-17 22:11 343 3 gusting 6
2019-Sep-17 22:01 14.4
2019-Sep-17 21:51 320 1 gusting 2
2019-Sep-17 21:41 297 4 gusting 10
2019-Sep-17 21:31 319 3 gusting 4
2019-Sep-17 21:21 326 3 gusting 7 15.0
2019-Sep-17 21:11 319 3 gusting 6 15.0
2019-Sep-17 21:01 321 3 gusting 7 15.0
2019-Sep-17 20:51 325 3 gusting 8 15.0
2019-Sep-17 20:41 315 4 gusting 6 15.0
2019-Sep-17 20:31 310 4 gusting 9 15.0
2019-Sep-17 20:21 307 3 gusting 6 15.6
2019-Sep-17 20:11 319 3 gusting 6 15.6
2019-Sep-17 20:01 295 3 gusting 8 15.6
2019-Sep-17 19:51 315 5 gusting 6 16.1
2019-Sep-17 19:41 309 3 gusting 5 16.1
2019-Sep-17 19:31 333 3 gusting 6 16.7
2019-Sep-17 19:21 302 4 gusting 6 16.7
2019-Sep-17 19:11 318 3 gusting 6 16.7
2019-Sep-17 19:01 328 4 gusting 5
2019-Sep-17 18:51 331 4 gusting 10 17.8
2019-Sep-17 18:41 332 5 gusting 8 17.8
2019-Sep-17 18:31 324 3 gusting 6
2019-Sep-17 18:21 335 3 gusting 5 18.9
2019-Sep-17 18:11 338 2 gusting 4 18.9
2019-Sep-17 18:01 292 2 gusting 2
2019-Sep-17 17:51 282 2 gusting 3 19.4
2019-Sep-17 17:41 319 1 gusting 2 19.4
2019-Sep-17 17:31 337 1 gusting 2 20.0
2019-Sep-17 17:21 289 1 gusting 3 20.0
2019-Sep-17 17:11 315 1 gusting 3
2019-Sep-17 17:01 272 0 gusting 2 20.6
2019-Sep-17 16:51 340 0 gusting 1 20.6
2019-Sep-17 16:41 333 0 gusting 1 20.6
2019-Sep-17 16:31 334 0 gusting 3 21.1
2019-Sep-17 16:21 315 1 gusting 2
2019-Sep-17 16:11 331 2 gusting 4 20.6
2019-Sep-17 16:01 352 0 gusting 1 20.6
2019-Sep-17 15:51 329 0 gusting 0 20.6
2019-Sep-17 15:41 022 0 gusting 1
2019-Sep-17 15:31 316 1 gusting 1 21.7
2019-Sep-17 15:21 353 0 gusting 2 22.2
2019-Sep-17 15:11 344 1 gusting 1 21.7
2019-Sep-17 15:01 001 0 gusting 1 21.1
2019-Sep-17 14:51 325 0 gusting 1 20.6
2019-Sep-17 14:41 067 0 gusting 1 21.1
2019-Sep-17 14:31 345 0 gusting 1 21.1
2019-Sep-17 14:21 340 0 gusting 1
2019-Sep-17 14:11 324 0 gusting 1 20.0
2019-Sep-17 14:01 355 0 gusting 1 20.0
2019-Sep-17 13:51 299
2019-Sep-17 13:41 152 0 gusting 1 20.0
2019-Sep-17 13:31 351 1 gusting 2 20.0
2019-Sep-17 13:21 341 1 gusting 2
2019-Sep-17 13:11 303 0 gusting 1
2019-Sep-17 13:01 316 0 gusting 2 20.0
2019-Sep-17 12:51 327 3 gusting 5 20.0
2019-Sep-17 12:41 017 0 gusting 1 20.0
2019-Sep-17 12:31 308 1 gusting 2 20.0
2019-Sep-17 12:21 315 2 gusting 2
2019-Sep-17 12:11 322 0 gusting 3 20.6
2019-Sep-17 12:01 245 0 gusting 2 20.6
2019-Sep-17 11:51 337 1 gusting 2 20.6
2019-Sep-17 11:41 331 0 gusting 2
2019-Sep-17 11:31 315 20.6
2019-Sep-17 11:21 305 1 gusting 1 20.0
2019-Sep-17 11:11 353 0 gusting 1
2019-Sep-17 11:01 290 2 gusting 3 20.0
2019-Sep-17 10:51 321 1 gusting 1 20.0
2019-Sep-17 10:41 291 3 gusting 3 20.0
2019-Sep-17 10:31 329 1 gusting 2 20.0
2019-Sep-17 10:21 319 1 gusting 2 20.0
2019-Sep-17 10:11 305 0 gusting 4 19.4
2019-Sep-17 10:01 337 1 gusting 1
2019-Sep-17 09:51 18.9
2019-Sep-17 09:41 320 1 gusting 1
2019-Sep-17 09:31 285 0 gusting 1 18.3
2019-Sep-17 09:21 18.3
2019-Sep-17 09:11 315 0 gusting 3 18.3
2019-Sep-17 09:01 157 0 gusting 0 17.8
2019-Sep-17 08:51 248 0 gusting 0 17.8
2019-Sep-17 08:41 270
2019-Sep-17 08:31 022 17.2
2019-Sep-17 08:21 17.2
2019-Sep-17 08:11 337 16.7
2019-Sep-17 08:01 292 16.7
2019-Sep-17 07:52 333 1 gusting 2 16.1
2019-Sep-17 07:31 007 0 gusting 1 16.1
2019-Sep-17 07:21 16.1
2019-Sep-17 07:11 270 15.6
2019-Sep-17 07:01
2019-Sep-17 06:51 318 0 gusting 1 15.6
2019-Sep-17 06:41 337 0 gusting 2 15.0
2019-Sep-17 06:31 326 15.0
2019-Sep-17 06:21 247 15.0
2019-Sep-17 06:11
2019-Sep-17 06:01 322 0 gusting 0 15.0
2019-Sep-17 05:51 318 0 gusting 1 15.0
2019-Sep-17 05:41 337 15.0
2019-Sep-17 05:31 337 0 gusting 1
2019-Sep-17 05:21 310 0 gusting 1 15.0
2019-Sep-17 05:11 319 1 gusting 3 15.0
2019-Sep-17 05:01 236
2019-Sep-17 04:51 337 1 gusting 2 15.0
2019-Sep-17 04:41 283 1 gusting 1 15.0
2019-Sep-17 04:31 202
2019-Sep-17 04:21 005 1 gusting 3 15.0
2019-Sep-17 04:11 338 1 gusting 3
2019-Sep-17 04:01 324 0 gusting 3 15.0
2019-Sep-17 03:51 315
2019-Sep-17 03:41 315 14.4
2019-Sep-17 03:31 305 1 gusting 2 14.4
2019-Sep-17 03:21 003 0 gusting 0 14.4
2019-Sep-17 03:11 315 14.4
2019-Sep-17 03:01 14.4
2019-Sep-17 02:51 14.4
2019-Sep-17 02:41 090 14.4
2019-Sep-17 02:31 14.4
2019-Sep-17 02:21
2019-Sep-17 02:11 328 1 gusting 2 14.4
2019-Sep-17 02:01 240 0 gusting 1 14.4
2019-Sep-17 01:51 315 0 gusting 1 14.4
2019-Sep-17 01:41 326 14.4
2019-Sep-17 01:31 082 0 gusting 1 14.4
2019-Sep-17 01:21 14.4
2019-Sep-17 01:11 090 13.9
2019-Sep-17 01:01 13.9
2019-Sep-17 00:51
2019-Sep-17 00:41 067 0 gusting 0 13.9
2019-Sep-17 00:31 297 0 gusting 0 14.4
2019-Sep-17 00:21 348 0 gusting 1
2019-Sep-17 00:11 323 2 gusting 2 14.4
2019-Sep-17 00:01 310 2 gusting 3 14.4
2019-Sep-16 23:51 14.4
2019-Sep-16 23:41 067 14.4
2019-Sep-16 23:31 315 0 gusting 1 14.4
2019-Sep-16 23:21 14.4
2019-Sep-16 23:11 15.0
2019-Sep-16 23:01 084 15.0
2019-Sep-16 22:51 337 15.0
2019-Sep-16 22:41 15.0
2019-Sep-16 22:31 292 1 gusting 1 15.6
2019-Sep-16 22:21 315 0 gusting 1 15.6
2019-Sep-16 22:11
2019-Sep-16 22:01 15.6
2019-Sep-16 21:51 090 15.6
2019-Sep-16 21:41
2019-Sep-16 21:31 16.7
2019-Sep-16 21:21 337 0 gusting 1 16.7
2019-Sep-16 21:11 035 0 gusting 0 16.7
2019-Sep-16 21:01 180 17.2
2019-Sep-16 20:51 295 0 gusting 1 17.8
2019-Sep-16 20:41 339 3 gusting 3 17.8
2019-Sep-16 20:31 281 2 gusting 5 17.8
2019-Sep-16 20:21 302 3 gusting 5 18.3
2019-Sep-16 20:11 328 3 gusting 8
2019-Sep-16 20:01 335 2 gusting 4
2019-Sep-16 19:51 316 2 gusting 3 18.9
2019-Sep-16 19:41 351 2 gusting 3
2019-Sep-16 19:31 311 5 gusting 5 19.4
2019-Sep-16 19:21 303 3 gusting 6
2019-Sep-16 19:11 309 2 gusting 6 20.0
2019-Sep-16 19:01 297 3 gusting 4 20.6
2019-Sep-16 18:51 319 2 gusting 2 20.6
2019-Sep-16 18:41 338 3 gusting 6 21.1
2019-Sep-16 18:31 309 3 gusting 6 21.7
2019-Sep-16 18:21 324 1 gusting 1 21.7
2019-Sep-16 18:11 326 1 gusting 2
2019-Sep-16 18:01 337 0 gusting 1 21.7
2019-Sep-16 17:51 22.2
2019-Sep-16 17:41 270 22.8
2019-Sep-16 17:31
2019-Sep-16 17:21 303 0 gusting 1
2019-Sep-16 17:11 292 25.0
2019-Sep-16 17:01 303
2019-Sep-16 16:51 292 0 gusting 0 25.6
2019-Sep-16 16:41 291 1 gusting 3 26.1
2019-Sep-16 16:31 307 1 gusting 1 26.7
2019-Sep-16 16:21 330 1 gusting 3
2019-Sep-16 16:11 331 0 gusting 1 27.8
2019-Sep-16 16:01 325 1 gusting 1
2019-Sep-16 15:51 322 1 gusting 2 27.8
2019-Sep-16 15:41 288 2 gusting 3 28.3
2019-Sep-16 15:31 343 2 gusting 2
2019-Sep-16 15:21 079 0 gusting 1 28.9
2019-Sep-16 15:11 339 0 gusting 1
2019-Sep-16 15:01 280 1 gusting 2
2019-Sep-16 14:51 259 0 gusting 3 28.9
2019-Sep-16 14:41 275 2 gusting 2 28.3
2019-Sep-16 14:31 237 0 gusting 1 28.3
2019-Sep-16 14:21 302 0 gusting 3 28.3
2019-Sep-16 14:11 189 1 gusting 2 28.9
2019-Sep-16 14:01 263 1 gusting 1 28.9
2019-Sep-16 13:51 210 1 gusting 1 28.9
2019-Sep-16 13:41 256 0 gusting 3 28.3
2019-Sep-16 13:31 195 0 gusting 2 28.9
2019-Sep-16 13:21 275 1 gusting 2 28.9
2019-Sep-16 13:11 176 0 gusting 1 28.3
2019-Sep-16 13:01 320 0 gusting 3 28.9
2019-Sep-16 12:51 171 0 gusting 1 27.8
2019-Sep-16 12:41 252 1 gusting 3 27.8
2019-Sep-16 12:31 190 2 gusting 4 27.2
2019-Sep-16 12:21 212 1 gusting 2 27.2
2019-Sep-16 12:11 256 1 gusting 3 27.2
2019-Sep-16 12:01 179 0 gusting 1 26.7
2019-Sep-16 11:51 173 1 gusting 3
2019-Sep-16 11:41 226 1 gusting 2 26.7
2019-Sep-16 11:31 272 0 gusting 0 26.7
2019-Sep-16 11:21 202 1 gusting 2
2019-Sep-16 11:11 285 0 gusting 2 26.1
2019-Sep-16 11:01 315 1 gusting 2 25.6
2019-Sep-16 10:51 157 0 gusting 2
2019-Sep-16 10:41 202 25.6
2019-Sep-16 10:31 344
2019-Sep-16 10:21 090 0 gusting 1 23.3
2019-Sep-16 10:11 112 23.3
2019-Sep-16 10:01 082 22.8
2019-Sep-16 09:51 202 22.2
2019-Sep-16 09:41 151 0 gusting 1 21.7
2019-Sep-16 09:31 046 0 gusting 1 21.1
2019-Sep-16 09:21 20.6
2019-Sep-16 09:11
2019-Sep-16 09:01 20.0
2019-Sep-16 08:51 090 20.0
2019-Sep-16 08:41 19.4
2019-Sep-16 08:31 337 19.4
2019-Sep-16 08:21 206 18.9
2019-Sep-16 08:11 300 0 gusting 1 18.9
2019-Sep-16 08:01 001 0 gusting 0 18.3
2019-Sep-16 07:51 315 18.3
2019-Sep-16 07:41 265 0 gusting 1 17.8
2019-Sep-16 07:31 292 0 gusting 0 16.7
2019-Sep-16 07:21 15.6
2019-Sep-16 07:11 15.0
2019-Sep-16 07:01 14.4
2019-Sep-16 06:51
2019-Sep-16 06:41
2019-Sep-16 06:31 13.3
2019-Sep-16 06:21
2019-Sep-16 06:11
2019-Sep-16 06:01 12.8
2019-Sep-16 05:51 12.8
2019-Sep-16 05:41 13.3
2019-Sep-16 05:31
2019-Sep-16 05:21 13.9
2019-Sep-16 05:11 202 14.4
2019-Sep-16 05:01 14.4
2019-Sep-16 04:51 15.0
2019-Sep-16 04:41
2019-Sep-16 04:31 292 15.0
2019-Sep-16 04:21 15.0
2019-Sep-16 04:11 15.0
2019-Sep-16 04:01 15.6
2019-Sep-16 03:51 15.6
2019-Sep-16 03:41 15.6
2019-Sep-16 03:31 307 15.6
2019-Sep-16 03:21 15.6
2019-Sep-16 03:11 343 15.6
2019-Sep-16 03:01 15.6
2019-Sep-16 02:51 315
2019-Sep-16 02:41 337 15.6
2019-Sep-16 02:31 16.1
2019-Sep-16 02:21 16.1
2019-Sep-16 02:11 16.1
2019-Sep-16 02:01